weather.gov     
National Weather Service

Terminal Aerodrome Forecast
NWS Homepage
This page is being discontinued on March 12, 2014.
The same data is available at this site. Please update your bookmarks.
Thank you, and we apologize for the inconvenience.
Please send an email to SR-SRH.Webmaster@noaa.gov with any concerns.


Current Version
Previous Version:    01  02  03  04  05  06  07  08  09  10  11  12  13  14  15  16  17  18  19  20  21  22  23  24  25  26  27  28  29  
[Printable]
657
FTUS42 TJSJ 242300
TAFNCM
TAF
TNCM 242337Z 2500/2524 09014KT P6SM -RA SCT018 BKN040 BKN090
      TEMPO 2500/2504 10014G27KT 3SM SHRA BKN018
     FM250430 08012KT P6SM VCSH SCT018 BKN050
     FM251500 09016G25KT P6SM FEW020 SCT050=


U.S. Dept. of Commerce
NOAA National Weather Service
1325 East West Highway
Silver Spring, MD 20910
E-mail: w-nws.webmaster@noaa.gov
Page last modified: May 16, 2007
NATIONAL WEATHER SERVICE: for Safety, for Work, for Fun - FOR LIFE